{"data":{"norad_id":49288,"intl_designator":"2021-090K","name":"ONEWEB-0362","alt_names":[],"object_type":"PAYLOAD","status":"ACTIVE","operator":null,"country":"UK","launch_date":"2021-10-14","launch_site_code":"VOSTO","launch_vehicle":null,"mission":null,"orbit_class":"UNKNOWN","rcs_meters":null,"size_class":null,"mass_kg":null,"dimensions":null,"purposes":["comms"],"wikipedia_slug":null,"has_3d_model":false,"image_url":null,"decayed_at":null,"tle_current":{"epoch":"2026-09-20T00:34:37.087968Z","epoch_age_seconds":66882,"freshness":"FRESH","line1":"1 49288U 21090K   26263.02404037  .00000027  00000+0  34515-4 0  9992","line2":"2 49288  87.9105 286.0804 0001679  90.0485 270.0840 13.19726108239429","mean_motion":13.19726108,"eccentricity":0.0001679,"inclination_deg":87.9105,"raan_deg":286.0804,"arg_perigee_deg":90.0485,"mean_anomaly_deg":270.084,"bstar":3.4515e-5,"rev_number":23942,"period_min":109.11354949113,"perigee_km":1184.4963390195,"apogee_km":1187.0362977538,"semimajor_km":7563.9033183866,"source":"CELESTRAK","updated_at":"2026-09-20T09:00:44.670417Z"}}}